sat.trackr.live / text

‹ back to catalog

STARLINK-32509

NORAD 62042 · 2024-216L

PAYLOAD ACTIVE UNKNOWN

§ Identity

Operator
Country
US
Launch date
2024-11-21
Launch site
AFETR
Launch vehicle
Mass (kg)
RCS (m²)

Purposes: comms

External: N2YO · Heavens-Above · Gunter

§ Orbital elements

Epoch: 2026-09-21T05:59:46.159584Z

Period
94.27 min
Inclination
43.0013°
Eccentricity
0.0001653
Mean motion
15.27581113 rev/d
Perigee alt
481.9 km
Apogee alt
484.2 km
Semi-major
6,861.2 km
B*
5.7124e-4
RAAN
231.9393°
Arg perigee
271.2757°
Mean anomaly
88.7905°
Rev number
10,378

§ Raw data

STARLINK-325091 62042U 24216L   26264.24983981  .00015491  00000+0  57124-3 0  99942 62042  43.0013 231.9393 0001653 271.2757  88.7905 15.27581113103783

JSON: /api/v1/satellites/62042 · /tle

For live sub-satellite position, see the globe view (requires WebGL).

§ Visibility from observer

Set your observer location to see the next 7 days of passes ≥ 10°. The values pass through the URL so the page stays shareable.

No JS? Fill the form by hand. The geolocation button needs JavaScript.